Location: The Saddle
(36.8333°N, 80.3417°W)
Time: 14:21:08
(UTC-04:00)

Courier 1B - Pass Details

Date: 27 September 2024
Orbit: 962 x 1208 km, 28.3° (Epoch: 06 October)

Event Time Altitude Azimuth Distance (km) Brightness Sun altitude
Rises 15:02:12 0° 264° (W) 3,693 11.0 43.5°
Reaches altitude 10° 15:05:18 10° 251° (WSW) 2,774 10.7 43.1°
Maximum altitude 15:10:36 25° 199° (SSW) 1,960 10.5 42.4°
Drops below altitude 10° 15:16:08 10° 147° (SSE) 2,905 10.2 41.6°
Sets 15:19:29 0° 135° (SE) 3,906 10.7 41.1°
